Voltar ao catálogo

DELTA 1 DEB

AtivoPO
NORAD 37661·DEBRIS·🇺🇸 United States

Lançado Mar 5, 1978 de Vandenberg Space Force Base

Loading…

Próximas Passagens (próximas 24 horas)

TLE

AtualizadoSource: Space-Track

Época: Sep 14, 2026, 09:23 UTC

1 37661U 78026JY  26257.39162110  .00000113  00000-0  22904-3 0  9996
2 37661  98.9050 113.6740 0329210 324.2253  33.7215 13.32907428164254

Acompanhe DELTA 1 DEB em tempo real com AllMySat

Download on the App Store